CDT,Max TemperatureF,Mean TemperatureF,Min TemperatureF,Max Dew PointF,MeanDew PointF,Min DewpointF,Max Humidity, Mean Humidity, Min Humidity, Max Sea Level PressureIn, Mean Sea Level PressureIn, Min Sea Level PressureIn, Max VisibilityMiles, Mean VisibilityMiles, Min VisibilityMiles, Max Wind SpeedMPH, Mean Wind SpeedMPH, Max Gust SpeedMPH,PrecipitationIn, CloudCover, Events, WindDirDegrees
2013-7-1,90,76,62,62,59,56,93,63,32,29.96,29.92,29.87,10,10,8,12,4,17,0.00,0,,348
2013-7-2,91,77,63,64,60,54,93,61,28,30.02,29.98,29.93,10,10,5,16,3,21,0.00,0,,38
2013-7-3,91,78,64,67,63,58,93,64,34,30.04,29.99,29.93,10,10,4,14,4,17,0.00,0,,80
2013-7-4,93,79,64,67,63,56,93,62,30,30.01,29.96,29.92,10,9,5,13,2,15,0.00,0,,73
2013-7-5,94,80,65,68,64,60,93,63,33,30.00,29.95,29.88,10,9,6,13,4,17,0.00,0,,93
2013-7-6,94,82,69,72,68,63,100,69,38,29.97,29.93,29.86,10,10,6,17,5,23,0.00,1,,99
2013-7-7,94,83,72,76,73,70,100,75,49,30.02,29.98,29.93,10,9,0,18,6,24,0.57,4,Fog-Rain-Thunderstorm,125
2013-7-8,89,81,73,75,73,70,100,78,55,30.14,30.09,30.02,10,10,5,12,6,15,0.00,2,Rain,151
2013-7-9,96,83,70,76,72,67,100,70,40,30.17,30.11,30.02,10,6,0,14,4,18,0.00,3,Fog,174
2013-7-10,97,86,74,76,72,68,100,70,40,30.10,30.03,29.93,10,10,7,10,4,16,0.00,1,,190
2013-7-11,98,87,75,75,72,70,94,68,42,29.99,29.96,29.90,10,10,10,14,5,21,0.00,1,,220
2013-7-12,99,86,73,73,71,70,93,66,39,29.98,29.92,29.86,10,10,10,12,4,14,0.00,1,,71
2013-7-13,98,87,76,72,63,48,79,50,20,29.98,29.92,29.86,10,10,10,12,5,16,0.00,1,,52
2013-7-14,87,80,73,72,69,63,93,77,60,29.97,29.92,29.88,10,9,6,21,6,28,0.04,2,Rain-Thunderstorm,126
2013-7-15,88,80,71,73,71,70,100,80,59,30.08,30.02,29.95,10,7,0,21,4,28,1.86,4,Fog-Rain-Thunderstorm,63
2013-7-16,91,81,71,75,73,70,100,76,52,30.15,30.11,30.05,10,10,6,3,4,7,0.00,3,Thunderstorm,86
2013-7-17,91,81,71,75,74,72,100,80,59,30.23,30.19,30.12,10,9,5,13,4,20,T,5,,99
2013-7-18,93,83,72,74,72,68,100,74,47,30.16,30.10,30.00,10,9,5,10,2,14,T,1,Rain-Thunderstorm,61
2013-7-19,82,77,72,74,72,69,100,87,74,30.11,30.04,29.96,10,9,2,8,2,10,0.28,3,Rain,289
2013-7-20,91,81,70,75,72,69,100,76,52,30.00,29.97,29.90,10,6,0,18,3,22,0.41,4,Fog-Rain-Thunderstorm,180
2013-7-21,93,83,73,76,73,71,100,76,52,29.99,29.95,29.92,10,8,1,20,5,25,0.01,4,Rain-Thunderstorm,172
2013-7-22,97,88,78,77,75,72,91,68,45,30.03,29.98,29.92,10,10,6,14,7,21,0.00,3,,193
2013-7-23,95,85,75,76,73,70,100,72,43,30.04,29.97,29.87,10,9,4,14,6,20,0.00,3,,202
2013-7-24,94,84,74,75,73,72,100,76,52,30.01,29.94,29.87,10,9,6,15,5,21,0.04,2,Rain-Thunderstorm,224
2013-7-25,94,84,73,76,74,71,100,75,49,30.05,30.00,29.94,10,9,5,9,3,10,0.00,3,,93
2013-7-26,93,84,75,76,74,69,100,75,49,30.05,29.98,29.88,10,10,6,13,5,17,0.00,2,,188
2013-7-27,87,79,71,76,73,69,94,78,61,29.96,29.92,29.88,10,8,1,13,5,18,0.39,7,Rain,308
2013-7-28,91,80,69,77,73,69,100,80,59,29.98,29.95,29.91,10,9,2,18,4,25,0.13,3,Rain-Thunderstorm,126
2013-7-29,97,86,74,77,73,68,100,70,40,30.07,30.02,29.97,10,6,1,14,7,20,0.00,3,,161
2013-7-30,96,84,72,75,71,66,100,70,39,30.15,30.08,29.99,10,7,0,10,7,14,0.00,3,Fog,163
2013-7-31,98,86,74,75,72,66,100,69,38,30.11,30.04,29.93,10,9,6,12,4,14,0.00,2,,206